Regional Weather Roundup
Issued by NWS

Home | Current Version | Previous Version | Graphics & Text | Print | Product List | Glossary On
Versions: 1 2 3 4 5 6 7 8 9 10 11 12 13 14 15 16 17 18 19 20 21 22 23 24 25 26 27 28 29 30 31 32 33 34 35 36 37 38 39 40 41 42 43 44 45 46 47 48 49 50
000
ASUS43 KDMX 220401
RWRIA

WEATHER ROUNDUP FOR IOWA
NATIONAL WEATHER SERVICE DES MOINES IA
1000 PM CST SAT JAN 21 2017

NOTE: "FAIR" INDICATES FEW OR NO CLOUDS BELOW 12,000 FEET WITH NO
SIGNIFICANT WEATHER AND/OR OBSTRUCTIONS TO VISIBILITY.

* - THESE STATIONS ARE NOT NWS STATIONS...THUS NOT UNDER NWS
QUALITY CONTROL.  THEY ALSO DO NOT REPORT WEATHER SUCH
AS PRECIPITATION OR FOG.

IAZ001>003-012>014-020>022-031>034-043>046-220500-
   NORTHWEST IOWA

CITY           SKY/WX    TMP DP  RH WIND       PRES   REMARKS
CARROLL *      FOG       32  32 100 CALM      29.55  VSB 1/4
CHEROKEE *     MOCLDY    31  30  99 CALM      29.57R
DENISON *      CLEAR     32  32 100 N9        29.54R WCI  24
LE MARS *      MOCLDY    30  28  93 CALM      29.58R
ORANGE CITY *  CLOUDY    32  30  93 NW12      29.55R WCI  23
SHELDON *      CLOUDY    32  32 100 NW9       29.54R WCI  24
SIOUX CITY     CLEAR     29  27  92 NW6       29.58R WCI  23
SPENCER        CLOUDY    32  30  92 NW10      29.54R WCI  24
STORM LAKE *   CLEAR     30  30 100 W6        29.55R FOG     WCI  24
$$

IAZ055>058-069>071-079>083-090>094-220500-
   SOUTHWEST IOWA

CITY           SKY/WX    TMP DP  RH WIND       PRES   REMARKS
ATLANTIC *     FOG       30  30 100 N5        29.55S VSB<1/4 WCI  25
AUDUBON *      FOG       28  27  93 CALM      29.56R VSB 1/4
CLARINDA *     CLEAR     30  30 100 CALM      29.58R
COUNCIL BLFS * CLEAR     39  39 100 S3        29.55R
CRESTON *      FOG       36  36 100 SW6       29.56R VSB 1/4 WCI  31
HARLAN  *      FOG       32  32 100 CALM      29.58S VSB<1/4
LAMONI         CLOUDY    40  39  97 S5        29.55R
RED OAK *      FOG       30  30 100 CALM      29.56  VSB 1/4
SHENANDOAH *   CLEAR     32  32 100 CALM      29.57R
$$

IAZ047>049-059>061-072>074-084-220500-
   CENTRAL IOWA

CITY           SKY/WX    TMP DP  RH WIND       PRES   REMARKS
AMES           CLEAR     33  33 100 SW3       29.55S FOG
ANKENY *       FOG       30  30 100 CALM      29.57S VSB<1/4
BOONE *        CLEAR     37  37 100 SW5       29.54S FOG     WCI  34
CHARITON *     FOG       32  32 100 S6        29.56R VSB<1/4 WCI  26
DES MOINES     PTCLDY    34  32  92 CALM      29.56R FOG
GRINNELL*      FOG       34  33  97 CALM      29.57S VSB 1/2
KNOXVILLE *    FOG       34  34 100 SE5       29.55R VSB 1/4 WCI  30
MARSHALLTOWN   CLEAR     35  34  96 SW5       29.55S FOG     WCI  31
NEWTON *       FOG       34  34 100 CALM      29.55F VSB 1/4
PELLA *        FOG       35  35  98 CALM      29.58  VSB 1/4
PERRY *          N/A     34  33  99 CALM      29.55S FOG
$$

IAZ004>006-015-016-023>025-035-036-220500-
   NORTH CENTRAL IOWA

CITY           SKY/WX    TMP DP  RH WIND       PRES   REMARKS
ALGONA *       CLOUDY    32  32 100 W13       29.54  WCI  22
CLARION *      CLOUDY    34  34 100 W6        29.56R WCI  29
ESTHERVILLE    CLOUDY    31  31 100 W8        29.53R WCI  23
FORT DODGE *   CLOUDY    34  30  86 CALM      29.57R
MASON CITY     CLOUDY    34  33  96 W8        29.55R WCI  27
FOREST CITY *  CLOUDY    32  32 100 W8        29.54R WCI  25
WEBSTER CITY * CLOUDY    34 N/A N/A NW5       29.54R HAZE    WCI  30
IOWA FALLS *   CLOUDY    35  35  98 SW6       29.56R FOG     WCI  30
$$

IAZ007>011-017>019-026>030-037>042-050>054-066-220500-
   NORTHEAST IOWA

CITY           SKY/WX    TMP DP  RH WIND       PRES   REMARKS
CEDAR RAPIDS   CLEAR     35  34  96 S5        29.56S FOG     WCI  31
CHARLES CITY * MOCLDY    36  36 100 CALM      29.54S
CLINTON *      CLOUDY    39  39 100 SW3       29.60R
DECORAH *      CLOUDY    37  37 100 SW5       29.53  WCI  34
DUBUQUE        CLOUDY    39  38  96 S6        29.56S FOG     WCI  35
MONTICELLO *   CLOUDY    39  37  93 CALM      29.57R FOG
OELWEIN *      PTCLDY    36  36 100 W3        29.55
WATERLOO       CLEAR     34  32  92 CALM      29.55S FOG
$$

IAZ064-065-067-068-078-220500-
   EAST CENTRAL IOWA

CITY           SKY/WX    TMP DP  RH WIND       PRES   REMARKS
DAVENPORT      CLOUDY    41  38  89 W6        29.60R
IOWA CITY      CLOUDY    36  34  92 S5        29.60R WCI  32
MUSCATINE *    CLOUDY    41  39  93 W6        29.60R
QUAD CITIES    CLOUDY    44  38  79 W5        29.59R
$$

IAZ062-063-075>077-085>089-095>099-220500-
   SOUTHEAST IOWA

CITY           SKY/WX    TMP DP  RH WIND       PRES   REMARKS
BURLINGTON     PTCLDY    37  36  96 N5        29.57F FOG     WCI  33
FAIRFIELD *    FOG       32  32 100 CALM      29.58  VSB<1/4
FORT MADISON * CLEAR     37  36  93 CALM      29.59S FOG
KEOKUK *       CLEAR     39 N/A N/A N5        29.57S HAZE
OSKALOOSA *      N/A     34  34  99 SE7       29.58R FOG     WCI  28
CENTERVILLE *  FOG       28  28 100 CALM      29.58S VSB 1/2
OTTUMWA        FOG       33  31  92 S5        29.57S VSB 1/4 WCI  29
WASHINGTON *   FOG       37  37 100 S3        29.60  VSB 1
$$

ABBREVIATIONS USED IN REMARKS
   TC - TEMPERATURES IN CELSIUS
  WCI - WIND CHILL INDEX
   HX - HEAT INDEX
  VSB - VISIBILITY
$$





USA.gov is the U.S. government's official web portal to all federal, state and local government web resources and services.